星链-2532 (STARLINK-2532 )

导读

STARLINK-2532是美国太空探索技术公司(SpaceX)星链星座的成员,2021年4月29日发射升空,属于星链网络低轨卫星组网的一部分,旨在为全球提供高速互联网接入服务。该卫星运行在近地轨道,承担着为全球用户尤其是偏远地区提供宽带服务的任务,是星链大规模星座部署中的一颗卫星,推动了低轨卫星互联网的发展。

基本信息
目录编号:
48308
目录名称:
STARLINK-2532
国际标识:
2021-036AJ
轨道中心:
EARTH
卫星名称:
星链-2532
卫星全名:
星链-2532 (STARLINK-2532 )
卫星状态:
已陨落 最后检测时间 2024-05-15
发射日期:
2021-04-29 UTC
国别 :
美国 (US)
星等 :
--
该卫星已列入 空间交会检测服务 Space Conjunction Data Service (SCDS) ,当前飞行风险评估等级: 无高风险
轨道信息
数据来源 国际轨道数据
星历时间: 2024-05-15T17:42:16+0800
轨道信息已过期850天
半长轴: 6545.578km
偏心率: 0.0001983
轨道倾角: 53.034°
近地点辐角 180.482°
升交点赤经 160.195°
平近点角 271.114°
近地点: 166.145km
远地点: 168.741km
周期: 87.838分钟
每日圈数: 16.393843
详细信息
固有亮度:
5
最大亮度:
2.5
卫星平台:
Starlink V1.0
覆盖范围:
全球
运营商:
太空探索技术公司
运营商所在国:
美国
制造商(研发单位):
太空探索技术公司
制造商所在国:
美国
使用方式:
暂无
卫星简介
星链(Starlink)计划是由太空探索技术公司(SpaceX)提出的一个巨型低轨卫星互联网星座项目,计划在2019年至2024年间在太空搭建由约1.2万颗卫星组成的“星链”网络,其中1584颗将部署在地球上空550千米处的近地轨道,并从2020年开始工作。该卫星已陨落。
与全量物体交会距离演化趋势
与全量物体交会风险概率演化趋势